This demonstration page uses our WeatherBlox Daily Observations layout. Learn more.

Left ArrowRight Arrow

31.84235, -102.49876

Hourly Observations for May 18, 2022

Temp ( °F °C ) Dew Point ( °F °C ) Humidity (%) Winds ( mph kmh ) Pressure ( in mb ) Visibility ( mi km ) Precip ( " mm )
12:53 am 00:53 Clear 84 28.9 43 6.1 24 24 S 13 20 29.73 1007 10 16 0.00 0.00
1:53 am 01:53 Clear 84 28.9 42 5.6 23 23 S 18 30 29.72 1007 10 16 0.00 0.00
2:53 am 02:53 Clear 83 28.3 43 6.1 24 24 S 17 28 29.72 1006 10 16 0.00 0.00
3:53 am 03:53 Clear 81 27.2 44 6.7 27 27 S 13 20 29.71 1006 10 16 0.00 0.00
4:53 am 04:53 Clear 79 26.1 46 7.8 31 31 SSW 14 22 29.70 1006 10 16 0.00 0.00
5:53 am 05:53 Clear 76 24.4 47 8.3 36 36 SSW 12 19 29.72 1006 10 16 0.00 0.00
6:53 am 06:53 Sunny 74 23.3 47 8.3 38 38 SSW 12 19 29.73 1007 10 16 0.00 0.00
7:53 am 07:53 Sunny 75 23.9 45 7.2 34 34 SSW 8 13 29.75 1008 10 16 0.00 0.00
8:53 am 08:53 Sunny 83 28.3 40 4.4 22 22 WSW 15 24 29.75 1008 10 16 0.00 0.00
9:53 am 09:53 Sunny 88 31.1 26 -3.3 10 10 WSW 21 33 29.76 1008 10 16 0.00 0.00
10:53 am 10:53 Sunny 92 33.3 20 -6.7 7 7 W 15 24 29.75 1008 10 16 0.00 0.00
11:53 am 11:53 Sunny 96 35.6 20 -6.7 6 6 W 12 19 29.75 1007 10 16 0.00 0.00
12:53 pm 12:53 Sunny 99 37.2 19 -7.2 5 5 W 12 19 29.74 1007 10 16 0.00 0.00
1:53 pm 13:53 Sunny 100 37.8 19 -7.2 5 5 WSW 16 26 29.72 1006 10 16 0.00 0.00
2:53 pm 14:53 Sunny 100 37.8 18 -7.8 5 5 WNW 12 19 29.70 1006 10 16 0.00 0.00
3:53 pm 15:53 Sunny 101 38.3 19 -7.2 5 5 W 9 15 29.68 1005 10 16 0.00 0.00
4:53 pm 16:53 Sunny 100 37.8 21 -6.1 6 6 VRB 6 9 29.66 1005 9 14 0.00 0.00
5:53 pm 17:53 Sunny 100 37.8 20 -6.7 5 5 VRB 5 7 29.65 1004 9 14 0.00 0.00
6:53 pm 18:53 Sunny 99 37.2 19 -7.2 5 5 Calm 29.64 1004 9 14 0.00 0.00
7:53 pm 19:53 Sunny 97 36.1 24 -4.4 7 7 WSW 6 9 29.64 1004 9 14 0.00 0.00
8:53 pm 20:53 Clear 93 33.9 28 -2.2 10 10 WSW 8 13 29.64 1004 9 14 0.00 0.00
9:53 pm 21:53 Clear 89 31.7 27 -2.8 11 11 SW 8 13 29.65 1004 10 16 0.00 0.00
10:53 pm 22:53 Clear 87 30.6 25 -3.9 10 10 W 7 11 29.67 1005 10 16 0.00 0.00
11:53 pm 23:53 Clear 83 28.3 25 -3.9 12 12 W 6 9 29.67 1005 10 16 0.00 0.00

Powered by AerisWeather